Flag for Canada Weather past 2 weeks in Oakville, Ontario, Canada

Now
60 °F

Cool.


Feels Like: 60 °F
Forecast: 49 / 57 °F
Wind: 3 mph from West

Location: Burlington Piers

Current Time: Sep 17, 2014 at 10:35:53 PM

Latest Report: Sep 17, 2014 at 10:00 PM


Visibility: N/A

Pressure: 29.96 "Hg

Humidity: 69%

Dew point: 50 °F

Location of OakvilleLocation

Historic Weather in Oakville — Graph

°F

Oakville temperature yesterday

Maximum temperature yesterday: 65 °F (at 5:00 PM)
Minimum temperature yesterday: 54 °F (at 8:00 AM)
Average temperature yesterday: 59 °F

Past Weeks' High & Low Weather Summary

 TemperatureHumidityPressure
High86 °F (Sep 5, 6:00 PM)92% (Sep 10, 2:00 AM)30.33 "Hg (Sep 10, 2:00 AM)
Low52 °F (Sep 12, 7:00 AM)34% (Sep 7, 9:00 PM)29.53 "Hg (Sep 11, 4:00 AM)
Average64 °F71%30.05 "Hg
* Reported Sep 2 9:00 PM — Sep 17 9:00 PM, Oakville, Weather by CustomWeather, © 2014

Note: Actual official high and low records may vary slightly from our data, if they occured in-between our weather recording intervals... More about our weather records

Advertising

Oakville weather history for previous 24 hours

 ConditionsComfort  
Time TempWeatherWind HumidityBarometerVisibility
9:00 PM
Sep 17
61 °FCool.5 mph67%29.96 "HgN/A
8:00 PM64 °FMild.9 mph59%29.95 "HgN/A
7:00 PM66 °FMild.6 mph49%29.94 "HgN/A
6:00 PM67 °FMild.6 mph41%29.94 "HgN/A
5:00 PM68 °FMild.8 mph37%29.94 "HgN/A
4:00 PM68 °FMild.7 mph41%29.94 "HgN/A
3:00 PM67 °FMild.7 mph40%29.94 "HgN/A
2:00 PM67 °FMild.7 mph43%29.96 "HgN/A
1:00 PM65 °FMild.7 mph47%29.97 "HgN/A
12:00 PM63 °FMild.8 mph52%29.99 "HgN/A
11:00 AM62 °FRefreshingly cool.6 mph56%30.01 "HgN/A
10:00 AM59 °FCool.5 mph65%30.03 "HgN/A
9:00 AM55 °FCool.5 mph75%30.03 "HgN/A
8:00 AM53 °FCool.6 mph77%30.03 "HgN/A
7:00 AM53 °FCool.6 mph77%30.03 "HgN/A
6:00 AM54 °FCool.6 mph75%30.03 "HgN/A
5:00 AM54 °FCool.5 mph70%30.03 "HgN/A
4:00 AM53 °FCool.5 mph76%30.04 "HgN/A
3:00 AM54 °FCool.6 mph77%30.04 "HgN/A
2:00 AM55 °FCool.5 mph77%30.04 "HgN/A
1:00 AM57 °FCool.2 mph65%30.04 "HgN/A
12:00 AM55 °FCool.7 mph71%30.05 "HgN/A
11:00 PM
Sep 16
57 °FCool.2 mph66%30.05 "HgN/A
10:00 PM59 °FCool.3 mph61%30.06 "HgN/A
Weather by CustomWeather, © 2014

See weather overviewHow to use our weather pages